Regional Weather Roundup
Issued by NWS

Home | Current Version | Previous Version | Graphics & Text | Print | Product List | Glossary On
Versions: 1 2 3 4 5 6 7 8 9 10 11 12 13 14 15 16 17 18 19 20 21 22 23 24 25 26 27 28 29 30 31 32 33 34 35 36 37 38 39 40 41 42 43 44 45 46 47 48 49 50
000
ASUS43 KLOT 111206
RWRIL

ILLINOIS REGIONAL WEATHER ROUNDUP
NATIONAL WEATHER SERVICE CHICAGO/ROMEOVILLE IL
700 AM CDT FRI JUL 11 2014

NOTE: "FAIR" INDICATES FEW OR NO CLOUDS BELOW 12,000 FEET WITH NO
SIGNIFICANT WEATHER AND/OR OBSTRUCTIONS TO VISIBILITY.

* THESE STATIONS ARE NOT UNDER NWS QUALITY CONTROL. THEY ALSO MAY NOT
  REPORT WEATHER SUCH AS PRECIPITATION OR FOG.

ILZ001-002-007-009-015-016-024-111300-
NORTHWEST ILLINOIS

CITY           SKY/WX    TMP DP  RH WIND       PRES   REMARKS
MOLINE         MOSUNNY   64  56  75 S3        30.17R
6HR MIN TEMP:  61; 6HR MAX TEMP:  66;

STERLING*      PTSUNNY   64  57  77 CALM      30.20R
SAVANNA*       CLOUDY    65  58  80 SE5       30.18R
$$

ILZ003-004-008-010-011-017-018-111300-
NORTH CENTRAL ILLINOIS

CITY           SKY/WX    TMP DP  RH WIND       PRES   REMARKS
ROCKFORD       MOSUNNY   61  55  81 S3        30.20S
6HR MIN TEMP:  59; 6HR MAX TEMP:  64;

FREEPORT*      MOSUNNY   61  58  90 S5        30.21R
ROCHELLE*      MOSUNNY   59  56  89 SE3       30.20R
DE KALB*       SUNNY     61  54  78 S6        30.21R
PERU*          PTSUNNY   62  58  86 CALM      30.20S
$$

ILZ005-006-012>014-019>023-111300-
NORTHEAST ILLINOIS

CITY           SKY/WX    TMP DP  RH WIND       PRES   REMARKS
CHICAGO-OHARE  MOSUNNY   64  53  67 S3        30.20R
6HR MIN TEMP:  60; 6HR MAX TEMP:  65;

CHICAGO-MIDWAY MOSUNNY   66  54  65 S6        30.20R
6HR MIN TEMP:  63; 6HR MAX TEMP:  68;

AURORA         SUNNY     61  55  81 CALM      30.21R
6HR MIN TEMP:  54; 6HR MAX TEMP:  61;

LANSING*       SUNNY     58  55  88 CALM      30.21S
JOLIET*        SUNNY     62  53  73 CALM      30.22R
WAUKEGAN       SUNNY     63  56  78 CALM      30.20R
6HR MIN TEMP:  56; 6HR MAX TEMP:  63;

DUPAGE AIRPORT SUNNY     62  55  77 CALM      30.20R
6HR MIN TEMP:  57; 6HR MAX TEMP:  62;

KANKAKEE*      SUNNY     58  56  91 CALM      30.21R
WHEELING       SUNNY     64  57  78 CALM      30.21R
6HR MIN TEMP:  60; 6HR MAX TEMP:  64;

MORRIS*        SUNNY     60  58  93 CALM      30.20R
ROMEOVILLE*    SUNNY     61  54  77 S3        30.21R
NORTHERLY ISL    N/A     66  54  65 S2          N/A
$$

LMZ740>746-111300-
SOUTHERN LAKE MICHIGAN

STATION/POSITION SKY/WX   TEMP    WIND        PRES    VSBY  WAVE
                          AIR SEA DIR/SP/G                  HT/PER
                          (F)     (DEG/KT/KT) (MB)    (MI)  (FT/S)
SOUTHERN BUOY              61 58  170/  6/  6 1022.7R         0
WAUKEGAN HARBOR            66     200/  5/  6 1023.7R
HARRISON CRIB              65     190/  8/  9   N/A
BURNHAM HARBOR             66     130/  3/  5   N/A
CALUMET HARBOR             65     150/  2/  4 1023.5R
MICHIGAN CITY              62     120/  7/  8   N/A
$$

ILZ025>027-034>036-040-047-049-050-058-095>099-111300-
WEST-CENTRAL ILLINOIS

CITY           SKY/WX    TMP DP  RH WIND       PRES   REMARKS
QUINCY         SUNNY     63  56  78 SE6       30.15R
GALESBURG*     MOSUNNY   60  56  87 CALM      30.18R
MACOMB*        SUNNY     58  56  93 SE5       30.19S
JACKSONVILLE*  SUNNY     63  58  84 SE6       30.18S
PITTSFIELD*    SUNNY     62  57  84 SE3       30.17R
$$

ILZ028>032-037-038-041>044-048-051>054-059>061-111300-
CENTRAL ILLINOIS

CITY           SKY/WX    TMP DP  RH WIND       PRES   REMARKS
PONTIAC        PTSUNNY   61  61 100 CALM      30.20R FOG
BLOOMINGTON    MOSUNNY   61  55  80 SE5       30.21R
DECATUR        MOSUNNY   59  55  87 E3        30.20R
PEORIA         MOSUNNY   65  55  70 CALM      30.19R
6HR MIN TEMP:  63; 6HR MAX TEMP:  68;

LACON*         PTSUNNY   62  56  80 CALM      30.19R
LINCOLN*       SUNNY     59  55  84 CALM      30.17R
SPRINGFIELD    SUNNY     63  57  81 SE6       30.18S
6HR MIN TEMP:  57; 6HR MAX TEMP:  63;

TAYLORVILLE    SUNNY     61  55  82 SE3       30.19R
$$

ILZ033-039-045-046-055>057-062-063-111300-
EAST-CENTRAL ILLINOIS

CITY           SKY/WX    TMP DP  RH WIND       PRES   REMARKS
CHAMPAIGN      MOSUNNY   63  58  83 E6        30.20R
RANTOUL*       SUNNY     66  55  66 SE3       30.21R
MATTOON          N/A     63  56  78 SE5       30.18R
PARIS*         PTSUNNY   60  59  97 CALM      30.20S
$$

ILZ079-100>102-111300-
SOUTHWEST ILLINOIS

CITY           SKY/WX    TMP DP  RH WIND       PRES   REMARKS
ALTON          SUNNY     63  61  94 E6        30.18R
BELLEVILLE     SUNNY     63  62  97 CALM      30.17R
CAHOKIA*       SUNNY     65  61  87 CALM      30.17R
SPARTA*        SUNNY     63  59  88 E3        30.18R
$$

ILZ064>066-069>071-074>076-080>082-084>086-088>090-092>094-111300-
SOUTH-CENTRAL ILLINOIS

CITY           SKY/WX    TMP DP  RH WIND       PRES   REMARKS
CARBONDALE     SUNNY     64  62  93 CALM      30.17R
6HR MIN TEMP:  61; 6HR MAX TEMP:  65;

CAIRO*         SUNNY     70  67  89 CALM      30.16R
MARION         SUNNY     64  63  94 CALM      30.09F
MT. VERNON     SUNNY     63  55  77 N5        30.19R
CENTRALIA*     SUNNY     74  58  59 CALM      30.18R
SALEM*         SUNNY     67  60  79 E5        30.19R
METROPOLIS*    SUNNY     66  65  98 CALM      30.16R FOG
$$

ILZ067-068-072-073-078-083-087-091-111300-
SOUTHEAST ILLINOIS

CITY           SKY/WX    TMP DP  RH WIND       PRES   REMARKS
FLORA*         SUNNY     62  57  84 CALM      30.20R
HARRISBURG*    SUNNY     63  63 100 CALM      30.18R
ROBINSON*      SUNNY     62  61  97 CALM      30.21R
CARMI*         SUNNY     63  63 100 CALM      30.18R
$$

ABBREVIATIONS USED IN REMARKS
   TC - TEMPERATURE IN CELSIUS
  WCI - WIND CHILL INDEX
   HX - HEAT INDEX
  VSB - VISIBILITY
$$




USA.gov is the U.S. government's official web portal to all federal, state and local government web resources and services.